Volver al catálogo

EAGLEEYE

ActivoCienciaPO
NORAD 60508·PAYLOAD·🇵🇱 Poland

Lanzado Aug 16, 2024 desde Vandenberg Space Force Base

Loading…

Próximos Pases (próximas 24 horas)

TLE

ActualizadoSource: Space-Track

Época: Sep 13, 2026, 19:01 UTC

1 60508U 24149AS  26256.79289852  .00688647  24003-3  94974-3 0  9997
2 60508  97.3534 356.6479 0007313 262.1295  97.9157 16.06095714116952

Sigue EAGLEEYE en tiempo real con AllMySat

Download on the App Store